Flag for Germany Weather past 2 weeks in Dachau, Bavaria, Germany

Now
37 °F

Clear.


Feels Like: 26 °F
Forecast: 33 / 41 °F
Wind: 23 mph from West

Location: Munich / Franz Josef Strauss Airport

Current Time: Apr 2, 2015 at 12:42:14 AM

Latest Report: Apr 2, 2015 at 12:20 AM


Visibility: 10 mi

Pressure: 30.12 "Hg

Humidity: 75%

Dew point: 30 °F

Location of DachauLocation

Historic Weather in Dachau — Graph

°F

Dachau temperature yesterday

Maximum temperature yesterday: 45 °F (at 4:20 PM)
Minimum temperature yesterday: 32 °F (at 4:20 AM)
Average temperature yesterday: 38 °F

Past Weeks' High & Low Weather Summary

 TemperatureHumidityPressure
High59 °F (Mar 18, 2:50 PM)100% (Mar 19, 7:50 AM)30.27 "Hg (Mar 19, 7:50 AM)
Low23 °F (Mar 20, 5:20 AM)31% (Mar 20, 4:20 PM)29.50 "Hg (Mar 30, 3:50 AM)
Average43 °F74%29.94 "Hg
* Reported Mar 17 10:20 PM — Apr 1 11:20 PM, Dachau, Weather by CustomWeather, © 2015

Note: Actual official high and low records may vary slightly from our data, if they occured in-between our weather recording intervals... More about our weather records

Advertising

Dachau weather history for previous 24 hours

 ConditionsComfort  
Time TempWeatherWind HumidityBarometerVisibility
11:20 PM
Wed, Apr 1
37 °FPartly cloudy.17 mph81%30.12 "HgN/A
10:50 PM36 °FClear.22 mph87%30.12 "Hg10 mi
10:20 PM36 °FPassing clouds.14 mph87%30.12 "HgN/A
9:50 PM34 °FSnow flurries. Passing clouds.18 mph93%30.12 "HgN/A
9:20 PM39 °FSnow flurries. Partly cloudy.14 mph70%30.09 "HgN/A
8:50 PM37 °FPassing clouds.13 mph75%30.09 "HgN/A
8:20 PM39 °FScattered showers. Scattered clouds.16 mph65%30.09 "HgN/A
7:50 PM37 °FPassing clouds.18 mph70%30.09 "HgN/A
7:20 PM39 °FScattered showers. Passing clouds.26 mph65%30.07 "HgN/A
6:50 PM41 °FPassing clouds.21 mph57%30.07 "HgN/A
6:20 PM41 °FScattered clouds.24 mph61%30.04 "HgN/A
5:50 PM43 °FScattered clouds.24 mph57%30.04 "HgN/A
5:20 PM43 °FScattered showers. Scattered clouds.24 mph57%30.04 "HgN/A
4:50 PM41 °FPartly sunny.17 mph66%30.04 "HgN/A
4:20 PM45 °FPartly sunny.20 mph46%30.04 "HgN/A
3:50 PM43 °FScattered clouds.24 mph53%30.04 "HgN/A
3:20 PM43 °FPartly sunny.24 mph57%30.04 "HgN/A
2:50 PM43 °FScattered clouds.24 mph53%30.04 "HgN/A
2:20 PM39 °FSnow flurries. Scattered clouds.24 mph65%30.04 "Hg6 mi
1:50 PM43 °FScattered clouds.24 mph49%30.04 "HgN/A
1:20 PM43 °FScattered clouds.22 mph49%30.04 "HgN/A
12:50 PM43 °FPartly sunny.24 mph53%30.04 "HgN/A
12:20 PM41 °FPartly sunny.25 mph61%30.04 "HgN/A
11:50 AM41 °FScattered clouds.29 mph66%30.04 "HgN/A
11:20 AM39 °FPartly sunny.17 mph81%30.04 "HgN/A
10:50 AM37 °FSnow showers. Broken clouds.16 mph75%30.01 "HgN/A
10:20 AM36 °FSnow flurries. Partly sunny.20 mph87%30.01 "HgN/A
9:50 AM37 °FPartly sunny.18 mph87%30.01 "HgN/A
9:20 AM36 °FBroken clouds.18 mph87%29.98 "HgN/A
8:50 AM36 °FBroken clouds.15 mph87%29.98 "HgN/A
8:20 AM36 °FBroken clouds.17 mph87%29.95 "HgN/A
7:50 AM36 °FPartly cloudy.18 mph87%29.95 "HgN/A
7:20 AM34 °FPartly cloudy.21 mph93%29.95 "HgN/A
6:50 AM34 °FPartly cloudy.22 mph93%29.92 "HgN/A
6:20 AM34 °FPartly cloudy.21 mph93%29.92 "HgN/A
5:50 AM34 °FPartly cloudy.20 mph93%29.92 "HgN/A
5:20 AM34 °FLight snow. Partly cloudy.17 mph93%29.92 "Hg4 mi
4:50 AM34 °FLight snow. Partly cloudy.15 mph93%29.92 "Hg5 mi
4:20 AM32 °FSnow showers. Low clouds.13 mph100%29.92 "Hg1 mi
3:50 AM34 °FSnow flurries. Partly cloudy.9 mph93%29.89 "Hg3 mi
3:20 AM34 °FSnow showers. Partly cloudy.16 mph93%29.92 "Hg1 mi
2:50 AM41 °FThundershowers. Partly cloudy.25 mph70%29.86 "HgN/A
2:20 AM41 °FPassing clouds.23 mph76%29.86 "HgN/A
1:50 AM39 °FPartly cloudy.25 mph81%29.86 "HgN/A
1:20 AM37 °FPassing clouds.13 mph93%29.86 "HgN/A
12:50 AM41 °FSprinkles. Partly cloudy.12 mph81%29.86 "Hg5 mi
12:20 AM41 °FPartly cloudy.16 mph81%29.86 "HgN/A
Weather by CustomWeather, © 2015

See weather overviewHow to use our weather pages